Weather History for Mt. Pocono, PA

Change the Weather History Date:

Tuesday, February 26, 2013

  Actual Average Record
Temperature  
Mean Temperature 28 °F 28 °F  
Max Temperature 36 °F 37 °F 63 °F (1976)
Min Temperature 20 °F 20 °F -6 °F (1910)
Degree Days  
Heating Degree Days 37 37  
Month to date heating degree days 1066 1019  
Since 1 July heating degree days 4766 5050  
Cooling Degree Days 0 0  
Month to date cooling degree days 0 0  
Year to date cooling degree days 0 0  
Moisture  
Dew Point 26 °F    
Average Humidity 82    
Maximum Humidity 100    
Minimum Humidity 64    
Precipitation  
Precipitation 0.05 in 0.09 in 1.20 in (1929)
Month to date precipitation 0.68 2.20  
Year to date precipitation 2.73 5.05  
Sea Level Pressure  
Sea Level Pressure 30.03 in    
Wind  
Wind Speed 12 mph (ESE)    
Max Wind Speed 26 mph    
Max Gust Speed 38 mph    
Visibility 6 miles    
Events Fog , Rain , Snow    
T = Trace of Precipitation, MM = Missing Value Source: NWS Daily Summary

Daily Weather History Graph

Daily Weather History Graph

Search for Another Location

Airport:

Trip Planner

Search our weather history database for the weather conditions in past years. The results will help you decide how hot, cold, wet, or windy it might be!

Date:

Astronomy

Feb. 26, 2013 Rise Set
Actual Time 6:40 AM EST 5:49 PM EST
Civil Twilight 6:12 AM EST 6:16 PM EST
Nautical Twilight 5:40 AM EST 6:48 PM EST
Astronomical Twilight 5:08 AM EST 7:20 PM EST
Moon 7:04 PM EST 6:40 AM EST
Length of Visible Light 12h 04m
Length of Day
11h 09m
Full, 99% of the Moon is Illuminated
Feb 26
Full
Mar 4
Last Quarter
Mar 11
New
Mar 19
First Quarter
Mar 27
Full

Hourly Weather History & Observations

Time (EST) Temp. Windchill Dew Point Humidity Pressure Visibility Wind Dir Wind Speed Gust Speed Precip Events Conditions
12:53 AM 23.0 °F - 19.0 °F 85% 30.23 in 10.0 mi Calm Calm - N/A   Clear
1:53 AM 21.9 °F - 18.0 °F 85% 30.25 in 10.0 mi Calm Calm - N/A   Clear
2:53 AM 23.0 °F - 19.0 °F 85% 30.23 in - Calm Calm - N/A   Clear
3:53 AM 21.9 °F 17.2 °F 18.0 °F 85% 30.22 in 10.0 mi East 3.5 mph - N/A   Clear
4:53 AM 24.1 °F 18.2 °F 19.9 °F 84% 30.22 in 10.0 mi East 4.6 mph - N/A   Clear
5:53 AM 26.1 °F 19.4 °F 21.0 °F 81% 30.21 in 10.0 mi East 5.8 mph - N/A   Clear
6:53 AM 27.0 °F 20.5 °F 21.9 °F 81% 30.21 in 10.0 mi East 5.8 mph - N/A   Clear
7:53 AM 28.9 °F 23.9 °F 24.1 °F 82% 30.24 in 10.0 mi ESE 4.6 mph - N/A   Clear
8:53 AM 30.0 °F 21.1 °F 24.1 °F 79% 30.25 in 10.0 mi ESE 10.4 mph - N/A   Clear
9:53 AM 30.9 °F 22.2 °F 24.1 °F 76% 30.23 in 10.0 mi ESE 10.4 mph - N/A   Clear
10:53 AM 34.0 °F 24.6 °F 26.1 °F 73% 30.22 in 10.0 mi ESE 13.8 mph - N/A   Clear
11:53 AM 35.1 °F 25.2 °F 25.0 °F 67% 30.22 in 10.0 mi SE 16.1 mph 20.7 mph N/A   Clear
12:39 PM 35.6 °F 25.9 °F 24.8 °F 65% 30.13 in 10.0 mi SE 16.1 mph 23.0 mph N/A   Mostly Cloudy
12:53 PM 35.1 °F 25.5 °F 26.1 °F 70% 30.19 in 10.0 mi SE 15.0 mph 21.9 mph N/A   Mostly Cloudy
1:53 PM 36.0 °F 26.0 °F 26.1 °F 67% 30.16 in 10.0 mi SSE 17.3 mph 24.2 mph N/A   Mostly Cloudy
2:53 PM 35.1 °F 26.9 °F 27.0 °F 72% 30.14 in 10.0 mi SE 11.5 mph 19.6 mph N/A   Overcast
3:53 PM 35.1 °F 26.4 °F 26.1 °F 70% 30.12 in 10.0 mi SE 12.7 mph - N/A   Overcast
4:53 PM 34.0 °F 24.6 °F 26.1 °F 73% 30.08 in 10.0 mi ESE 13.8 mph - N/A   Overcast
5:41 PM 33.8 °F 24.3 °F 28.4 °F 81% 29.99 in 9.0 mi ESE 13.8 mph 21.9 mph 0.00 in   Overcast
5:53 PM 33.1 °F 22.6 °F 28.0 °F 82% 30.06 in 1.8 mi ESE 16.1 mph 21.9 mph 0.00 in Snow Light Snow
6:10 PM 32.0 °F 22.5 °F 28.4 °F 87% 29.99 in 1.2 mi ESE 12.7 mph 24.2 mph 0.00 in Snow Light Snow
6:15 PM 32.0 °F 23.6 °F 28.4 °F 87% 30.00 in 1.2 mi ESE 10.4 mph 24.2 mph 0.00 in Snow Light Snow
6:44 PM 30.2 °F 19.3 °F 28.4 °F 93% 29.98 in 0.5 mi ESE 15.0 mph 25.3 mph 0.01 in Fog , Snow Light Snow
6:53 PM 30.9 °F 19.4 °F 30.0 °F 96% 30.04 in 0.2 mi ESE 17.3 mph 25.3 mph 0.01 in Fog , Snow Light Snow
7:18 PM 30.2 °F 16.8 °F 28.4 °F 93% 29.94 in 0.8 mi East 23.0 mph 32.2 mph 0.00 in Snow Light Snow
7:26 PM 30.2 °F 18.5 °F 28.4 °F 93% 29.93 in 1.0 mi ESE 17.3 mph 29.9 mph 0.00 in Snow Light Snow
7:53 PM 30.0 °F 17.5 °F 28.9 °F 96% 29.99 in 1.2 mi ESE 19.6 mph 28.8 mph 0.00 in Snow Light Snow
8:23 PM 30.2 °F 18.5 °F 28.4 °F 93% 29.91 in 3.0 mi East 17.3 mph 29.9 mph 0.00 in   Overcast
8:53 PM 30.0 °F 17.5 °F 28.0 °F 92% 29.95 in 7.0 mi ESE 19.6 mph 31.1 mph 0.00 in   Overcast
9:16 PM 28.4 °F 16.2 °F 26.6 °F 93% 29.88 in 9.0 mi ESE 17.3 mph 35.7 mph 0.00 in   Overcast
9:28 PM 28.4 °F 14.1 °F 26.6 °F 93% 29.89 in 3.0 mi ESE 24.2 mph 29.9 mph 0.00 in Snow Light Snow
9:34 PM 28.4 °F 14.7 °F 26.6 °F 93% 29.89 in 1.8 mi ESE 21.9 mph 33.4 mph 0.00 in Snow Light Snow
9:53 PM 28.9 °F 16.5 °F 26.1 °F 89% 29.94 in 1.5 mi ESE 18.4 mph 33.4 mph 0.00 in Snow Light Snow
10:02 PM 28.4 °F 15.8 °F 26.6 °F 93% 29.85 in 3.0 mi East 18.4 mph 33.4 mph 0.00 in Snow Light Snow
10:22 PM 28.4 °F 14.7 °F 26.6 °F 93% 29.84 in 2.5 mi East 21.9 mph 32.2 mph 0.00 in Snow Light Snow
10:33 PM 28.4 °F 14.1 °F 26.6 °F 93% 29.82 in 3.0 mi East 24.2 mph 34.5 mph 0.00 in Snow Light Snow
10:53 PM 28.0 °F 14.6 °F 26.1 °F 92% 29.88 in 7.0 mi East 20.7 mph 34.5 mph 0.00 in   Overcast
11:17 PM 28.4 °F 15.1 °F 26.6 °F 93% 29.80 in 2.0 mi East 20.7 mph 32.2 mph 0.00 in Snow Light Snow
11:27 PM 28.4 °F 14.7 °F 26.6 °F 93% 29.78 in 5.0 mi East 21.9 mph 32.2 mph 0.00 in   Overcast
11:36 PM 28.4 °F 14.7 °F 26.6 °F 93% 29.79 in 6.0 mi East 21.9 mph 34.5 mph 0.00 in Rain Light Freezing Rain
11:48 PM 28.4 °F 15.8 °F 26.6 °F 93% 29.77 in 4.0 mi East 18.4 mph 32.2 mph 0.00 in Rain Light Freezing Rain
11:53 PM 28.9 °F 15.8 °F 27.0 °F 92% 29.83 in 4.0 mi East 20.7 mph 35.7 mph N/A Rain Light Freezing Rain